Location: Unspecified
(47.8330°N, 0.0000°E)
Time: 16:07:11
(UTC+00:00)

VELOX 1 - Pass Details

Date: 28 August 2019
Orbit: 629 x 643 km, 98.2° (Epoch: 18 September)

Event Time Altitude Azimuth Distance (km) Brightness Sun altitude
Exits shadow 02:38:36 12° 303° (WNW) 1,917 ? -22.7°
Drops below altitude 10° 02:39:03 10° 308° (NW) 2,022 ? -22.6°
Sets 02:42:03 0° 330° (NNW) 2,939 ? -22.3°
